sat.trackr.live / text

‹ back to catalog

STARLINK-11641 [DTC]

NORAD 63268 · 2025-053D

PAYLOAD ACTIVE UNKNOWN

§ Identity

Operator
Country
US
Launch date
2025-03-15
Launch site
AFETR
Launch vehicle
Mass (kg)
RCS (m²)

Purposes: comms

External: N2YO · Heavens-Above · Gunter

§ Orbital elements

Epoch: 2026-09-20T18:22:17.507424Z

Period
91.67 min
Inclination
43.0006°
Eccentricity
0.0002029
Mean motion
15.70881690 rev/d
Perigee alt
355.0 km
Apogee alt
357.7 km
Semi-major
6,734.5 km
B*
1.1915e-3
RAAN
16.0366°
Arg perigee
285.2203°
Mean anomaly
74.8441°
Rev number
8,835

§ Raw data

STARLINK-11641 [DTC]1 63268U 25053D   26263.76548041  .00155612  00000+0  11915-2 0  99922 63268  43.0006  16.0366 0002029 285.2203  74.8441 15.70881690 88354

JSON: /api/v1/satellites/63268 · /tle

For live sub-satellite position, see the globe view (requires WebGL).

§ Visibility from observer

Set your observer location to see the next 7 days of passes ≥ 10°. The values pass through the URL so the page stays shareable.

No JS? Fill the form by hand. The geolocation button needs JavaScript.